Location: Unspecified
(49.9820°N, 20.4363°E)
Time: 13:48:06
(UTC+02:00)

ISS - Pass Details

Date: 23 May 2018
Orbit: 402 x 407 km, 51.6° (Epoch: 20 May)

Event Time Altitude Azimuth Distance (km) Brightness Sun altitude
Rises 03:50:24 0° 280° (W) 2,319 -0.3 -7.3°
Reaches altitude 10° 03:53:27 10° 249° (WSW) 1,454 -1.6 -7.0°
Maximum altitude 03:54:51 12° 223° (SW) 1,323 -1.9 -6.8°
Drops below altitude 10° 03:56:15 10° 198° (SSW) 1,450 -1.6 -6.6°
Sets 03:59:17 0° 166° (SSE) 2,304 -0.3 -6.3°
